Weather History for Price, UT

Change the Weather History Date:

Sunday, September 2, 2012

  Actual Average Record
Temperature  
Mean Temperature 70 °F -  
Max Temperature 84 °F 78 °F 94 °F (1974)
Min Temperature 57 °F 51 °F 39 °F (2008)
Cooling Degree Days 4    
Growing Degree Days 20 (Base 50)    
Moisture  
Dew Point 48 °F    
Average Humidity 52    
Maximum Humidity 78    
Minimum Humidity 20    
Precipitation  
Precipitation 0.05 in - - ()
Sea Level Pressure  
Sea Level Pressure 30.02 in    
Wind  
Wind Speed 6 mph (ENE)    
Max Wind Speed 14 mph    
Max Gust Speed 23 mph    
Visibility 10 miles    
Events      
Averages and records for this station are not official NWS values.
T = Trace of Precipitation, MM = Missing Value Source: NWS Daily Summary

Daily Weather History Graph

Daily Weather History Graph

Search for Another Location

Airport:

Trip Planner

Search our weather history database for the weather conditions in past years. The results will help you decide how hot, cold, wet, or windy it might be!

Date:

Astronomy

Sep. 02, 2012 Rise Set
Actual Time 6:52 AM MDT 7:51 PM MDT
Civil Twilight 6:25 AM MDT 8:19 PM MDT
Nautical Twilight 5:52 AM MDT 8:51 PM MDT
Astronomical Twilight 5:18 AM MDT 9:25 PM MDT
Moon 8:41 PM MDT (9/2) 9:03 AM MDT (9/2)
Length of Visible Light 13h 53m
Length of Day
12h 58m
Waning Gibbous, 95% of the Moon is Illuminated
Sep 2
Waning Gibbous
Sep 8
Last Quarter
Sep 15
New
Sep 22
First Quarter
Sep 29
Full

Hourly Weather History & Observations

Time (MDT) Temp. Dew Point Humidity Pressure Visibility Wind Dir Wind Speed Gust Speed Precip Events Conditions
12:53 AM 57.9 °F 51.1 °F 78% 29.99 in 10.0 mi North 4.6 mph - N/A   Clear
1:53 AM 62.6 °F 51.8 °F 68% 30.22 in 10.0 mi NE 8.1 mph - N/A   Clear
2:53 AM 61.0 °F 50.0 °F 67% 29.98 in 10.0 mi NNE 10.4 mph - N/A   Clear
3:53 AM 62.1 °F 48.0 °F 60% 29.99 in 10.0 mi NNE 12.7 mph - N/A   Partly Cloudy
4:53 AM 57.9 °F 48.9 °F 72% 30.07 in 10.0 mi WNW 5.8 mph - N/A   Partly Cloudy
5:53 AM 60.1 °F 48.9 °F 67% 30.06 in 10.0 mi NW 3.5 mph - N/A   Clear
6:53 AM 60.1 °F 48.9 °F 67% 30.06 in 10.0 mi Calm Calm - N/A   Clear
7:53 AM 63.0 °F 51.1 °F 65% 30.08 in 10.0 mi Calm Calm - N/A   Clear
8:53 AM 64.0 °F 51.1 °F 63% 30.09 in 10.0 mi South 3.5 mph - N/A   Clear
9:53 AM 69.1 °F 53.1 °F 57% 30.10 in 10.0 mi ESE 3.5 mph - N/A   Clear
10:53 AM 71.1 °F 53.1 °F 53% 30.09 in 10.0 mi East 4.6 mph - N/A   Clear
11:53 AM 73.0 °F 52.0 °F 48% 30.07 in 10.0 mi SSE 5.8 mph - N/A   Clear
12:53 PM 75.9 °F 50.0 °F 40% 30.05 in 10.0 mi South 6.9 mph - N/A   Clear
1:53 PM 79.0 °F 39.9 °F 25% 29.99 in 10.0 mi Variable 4.6 mph - N/A   Clear
2:53 PM 81.0 °F 41.0 °F 24% 29.97 in 10.0 mi Calm Calm - N/A   Partly Cloudy
3:53 PM 82.0 °F 37.0 °F 20% 29.92 in 10.0 mi East 4.6 mph - N/A   Partly Cloudy
4:53 PM 81.0 °F 46.0 °F 29% 29.93 in 10.0 mi SSE 13.8 mph 23.0 mph N/A   Mostly Cloudy
5:53 PM 75.9 °F 44.1 °F 32% 29.96 in 10.0 mi SSE 12.7 mph - N/A   Clear
6:53 PM 73.9 °F 45.0 °F 35% 29.97 in 10.0 mi East 8.1 mph - N/A   Clear
7:53 PM 68.0 °F 54.0 °F 61% 29.98 in 10.0 mi ENE 6.9 mph - 0.05 in   Mostly Cloudy
8:53 PM 66.9 °F 52.0 °F 59% 29.99 in 10.0 mi NE 6.9 mph - N/A   Partly Cloudy
9:53 PM 66.9 °F 46.9 °F 49% 29.99 in 10.0 mi Calm Calm - N/A   Scattered Clouds
10:53 PM 66.0 °F 50.0 °F 56% 29.99 in 10.0 mi ENE 10.4 mph - N/A   Clear
11:53 PM 64.0 °F 46.9 °F 54% 30.00 in 10.0 mi NE 3.5 mph - N/A   Clear